START_TIME,STEP,MOV.,M35,t_acc.,PL05,t_acc.,PL06,t_acc.,PL07,t_acc.
1989-08-26T21:00:24.520 ,0,0,0.,4.8,0.,4.8,0.,4.8,0.,4.8
1989-08-26T21:00:29.320 ,0,0,0.,4.8,1.,4.8,0.,4.8,0.,4.8
1989-08-26T21:00:34.120 ,0,0,0.,4.8,0.,4.8,0.,4.8,0.,4.8
1989-08-26T21:00:38.920 ,0,0,0.,4.8,0.,4.8,0.,4.8,0.,4.8
1989-08-26T21:00:43.720 ,0,0,0.,4.8,1.,4.8,0.,4.8,1.,4.8
1989-08-26T21:00:48.520 ,1,0,0.,4.8,1.,4.8,0.,4.8,0.,4.8
1989-08-26T21:00:53.320 ,1,0,0.,4.8,0.,4.8,0.,4.8,0.,4.8
1989-08-26T21:00:58.120 ,1,0,0.,4.8,1.,4.8,0.,4.8,0.,4.8
1989-08-26T21:01:02.920 ,1,0,0.,4.8,0.,4.8,0.,4.8,0.,4.8
1989-08-26T21:01:07.720 ,1,0,0.,4.8,0.,4.8,0.,4.8,0.,4.8
1989-08-26T21:01:12.520 ,1,0,0.,4.8,1.,4.8,0.,4.8,0.,4.8
1989-08-26T21:01:17.320 ,1,0,0.,4.8,1.,4.8,0.,4.8,0.,4.8
1989-08-26T21:01:22.120 ,1,0,0.,4.8,0.,4.8,1.,4.8,0.,4.8
1989-08-26T21:01:26.920 ,1,0,0.,4.8,0.,4.8,0.,4.8,0.,4.8
1989-08-26T21:01:31.720 ,1,0,0.,4.8,0.,4.8,2.,4.8,0.,4.8
1989-08-26T21:01:36.520 ,2,0,0.,4.8,1.,4.8,0.,4.8,0.,4.8
1989-08-26T21:01:41.320 ,2,0,0.,4.8,1.,4.8,2.,4.8,0.,4.8
1989-08-26T21:01:46.120 ,2,0,0.,4.8,0.,4.8,0.,4.8,0.,4.8
1989-08-26T21:01:50.920 ,2,0,0.,4.8,0.,4.8,0.,4.8,0.,4.8
1989-08-26T21:01:55.720 ,2,0,0.,4.8,1.,4.8,0.,4.8,0.,4.8
1989-08-26T21:02:00.520 ,2,0,0.,4.8,0.,4.8,0.,4.8,0.,4.8
1989-08-26T21:02:05.320 ,2,0,0.,4.8,0.,4.8,0.,4.8,0.,4.8
1989-08-26T21:02:10.120 ,2,0,0.,4.8,1.,4.8,0.,4.8,0.,4.8
1989-08-26T21:02:14.920 ,2,0,0.,4.8,0.,4.8,0.,4.8,0.,4.8
1989-08-26T21:02:19.720 ,2,0,0.,4.8,0.,4.8,0.,4.8,0.,4.8
1989-08-26T21:02:24.520 ,3,0,0.,4.8,0.,4.8,0.,4.8,0.,4.8
1989-08-26T21:02:29.320 ,3,0,0.,4.8,3.,4.8,0.,4.8,0.,4.8
1989-08-26T21:02:34.120 ,3,0,0.,4.8,0.,4.8,0.,4.8,0.,4.8
1989-08-26T21:02:38.920 ,3,0,0.,4.8,0.,4.8,0.,4.8,0.,4.8
1989-08-26T21:02:43.720 ,3,0,0.,4.8,1.,4.8,0.,4.8,0.,4.8
1989-08-26T21:02:48.520 ,3,0,0.,4.8,0.,4.8,0.,4.8,0.,4.8
1989-08-26T21:02:53.320 ,3,0,0.,4.8,0.,4.8,0.,4.8,0.,4.8
1989-08-26T21:02:58.120 ,3,0,0.,4.8,0.,4.8,0.,4.8,0.,4.8
1989-08-26T21:03:02.920 ,3,0,0.,4.8,0.,4.8,0.,4.8,0.,4.8
1989-08-26T21:03:07.720 ,3,0,0.,4.8,0.,4.8,0.,4.8,0.,4.8
1989-08-26T21:03:12.520 ,4,0,0.,4.8,1.,4.8,0.,4.8,0.,4.8
1989-08-26T21:03:17.320 ,4,0,0.,4.8,0.,4.8,0.,4.8,0.,4.8
1989-08-26T21:03:22.120 ,4,0,0.,4.8,0.,4.8,2.,4.8,0.,4.8
1989-08-26T21:03:26.920 ,4,0,0.,4.8,0.,4.8,0.,4.8,0.,4.8
1989-08-26T21:03:31.720 ,4,0,0.,4.8,0.,4.8,0.,4.8,0.,4.8
1989-08-26T21:03:36.520 ,4,0,0.,4.8,1.,4.8,0.,4.8,0.,4.8
1989-08-26T21:03:41.320 ,4,0,0.,4.8,2.,4.8,0.,4.8,0.,4.8
1989-08-26T21:03:46.120 ,4,0,0.,4.8,0.,4.8,0.,4.8,0.,4.8
1989-08-26T21:03:50.920 ,4,0,0.,4.8,0.,4.8,0.,4.8,0.,4.8
1989-08-26T21:03:55.720 ,4,0,0.,4.8,0.,4.8,0.,4.8,0.,4.8
1989-08-26T21:04:00.520 ,5,0,0.,4.8,3.,4.8,0.,4.8,0.,4.8
1989-08-26T21:04:05.320 ,5,0,0.,4.8,1.,4.8,0.,4.8,0.,4.8
1989-08-26T21:04:10.120 ,5,0,0.,4.8,0.,4.8,0.,4.8,0.,4.8
1989-08-26T21:04:14.920 ,5,0,0.,4.8,1.,4.8,0.,4.8,0.,4.8
1989-08-26T21:04:19.720 ,5,0,0.,4.8,2.,4.8,0.,4.8,0.,4.8
1989-08-26T21:04:24.520 ,5,0,0.,4.8,0.,4.8,0.,4.8,0.,4.8
1989-08-26T21:04:29.320 ,5,0,0.,4.8,1.,4.8,1.,4.8,0.,4.8
1989-08-26T21:04:34.120 ,5,0,0.,4.8,0.,4.8,0.,4.8,0.,4.8
1989-08-26T21:04:38.920 ,5,0,0.,4.8,1.,4.8,0.,4.8,0.,4.8
1989-08-26T21:04:43.720 ,5,0,0.,4.8,0.,4.8,0.,4.8,0.,4.8
1989-08-26T21:04:48.520 ,6,0,0.,4.8,1.,4.8,1.,4.8,0.,4.8
1989-08-26T21:04:53.320 ,6,0,0.,4.8,1.,4.8,0.,4.8,0.,4.8
1989-08-26T21:04:58.120 ,6,0,0.,4.8,1.,4.8,0.,4.8,1.,4.8
1989-08-26T21:05:02.920 ,6,0,0.,4.8,0.,4.8,0.,4.8,0.,4.8
1989-08-26T21:05:07.720 ,6,0,0.,4.8,1.,4.8,0.,4.8,0.,4.8
1989-08-26T21:05:12.520 ,6,0,0.,4.8,0.,4.8,0.,4.8,0.,4.8
1989-08-26T21:05:17.320 ,6,0,0.,4.8,0.,4.8,0.,4.8,0.,4.8
1989-08-26T21:05:22.120 ,6,0,0.,4.8,0.,4.8,0.,4.8,0.,4.8
1989-08-26T21:05:26.920 ,6,0,0.,4.8,1.,4.8,0.,4.8,1.,4.8
1989-08-26T21:05:31.720 ,6,0,0.,4.8,0.,4.8,1.,4.8,0.,4.8
1989-08-26T21:05:36.520 ,7,0,0.,4.8,1.,4.8,0.,4.8,0.,4.8
1989-08-26T21:05:41.320 ,7,0,0.,4.8,0.,4.8,1.,4.8,0.,4.8
1989-08-26T21:05:46.120 ,7,0,0.,4.8,2.,4.8,0.,4.8,0.,4.8
1989-08-26T21:05:50.920 ,7,0,0.,4.8,0.,4.8,0.,4.8,0.,4.8
1989-08-26T21:05:55.720 ,7,0,0.,4.8,0.,4.8,0.,4.8,0.,4.8
1989-08-26T21:06:00.520 ,7,0,0.,4.8,1.,4.8,0.,4.8,0.,4.8
1989-08-26T21:06:05.320 ,7,0,0.,4.8,1.,4.8,0.,4.8,1.,4.8
1989-08-26T21:06:10.120 ,7,0,0.,4.8,1.,4.8,0.,4.8,0.,4.8
1989-08-26T21:06:14.920 ,7,0,0.,4.8,0.,4.8,0.,4.8,0.,4.8
1989-08-26T21:06:19.720 ,7,0,0.,4.8,0.,4.8,0.,4.8,0.,4.8
1989-08-26T21:06:24.520 ,7,0,0.,4.8,0.,4.8,0.,4.8,0.,4.8
1989-08-26T21:06:29.320 ,7,0,0.,4.8,0.,4.8,1.,4.8,0.,4.8
1989-08-26T21:06:34.120 ,7,0,0.,4.8,0.,4.8,0.,4.8,0.,4.8
1989-08-26T21:06:38.920 ,7,0,0.,4.8,0.,4.8,0.,4.8,0.,4.8
1989-08-26T21:06:43.720 ,7,0,0.,4.8,0.,4.8,0.,4.8,0.,4.8
1989-08-26T21:06:48.520 ,7,0,0.,4.8,0.,4.8,0.,4.8,0.,4.8
1989-08-26T21:06:53.320 ,7,0,0.,4.8,0.,4.8,0.,4.8,0.,4.8
1989-08-26T21:06:58.120 ,7,0,0.,4.8,0.,4.8,0.,4.8,0.,4.8
1989-08-26T21:07:02.920 ,7,0,0.,4.8,1.,4.8,0.,4.8,2.,4.8
1989-08-26T21:07:07.720 ,7,0,0.,4.8,2.,4.8,0.,4.8,0.,4.8
1989-08-26T21:07:12.520 ,6,0,0.,4.8,0.,4.8,0.,4.8,0.,4.8
1989-08-26T21:07:17.320 ,6,0,0.,4.8,1.,4.8,0.,4.8,0.,4.8
1989-08-26T21:07:22.120 ,6,0,0.,4.8,1.,4.8,0.,4.8,0.,4.8
1989-08-26T21:07:26.920 ,6,0,0.,4.8,1.,4.8,1.,4.8,0.,4.8
1989-08-26T21:07:31.720 ,6,0,0.,4.8,0.,4.8,0.,4.8,1.,4.8
1989-08-26T21:07:36.520 ,6,0,0.,4.8,0.,4.8,0.,4.8,0.,4.8
1989-08-26T21:07:41.320 ,6,0,0.,4.8,0.,4.8,1.,4.8,0.,4.8
1989-08-26T21:07:46.120 ,6,0,0.,4.8,1.,4.8,1.,4.8,0.,4.8
1989-08-26T21:07:50.920 ,6,0,0.,4.8,0.,4.8,0.,4.8,0.,4.8
1989-08-26T21:07:55.720 ,6,0,0.,4.8,2.,4.8,0.,4.8,0.,4.8
1989-08-26T21:08:00.520 ,5,0,0.,4.8,0.,4.8,0.,4.8,0.,4.8
1989-08-26T21:08:05.320 ,5,0,0.,4.8,0.,4.8,0.,4.8,0.,4.8
1989-08-26T21:08:10.120 ,5,0,0.,4.8,0.,4.8,1.,4.8,0.,4.8
1989-08-26T21:08:14.920 ,5,0,0.,4.8,0.,4.8,0.,4.8,0.,4.8
1989-08-26T21:08:19.720 ,5,0,0.,4.8,0.,4.8,0.,4.8,0.,4.8
1989-08-26T21:08:24.520 ,5,0,0.,4.8,0.,4.8,0.,4.8,0.,4.8
1989-08-26T21:08:29.320 ,5,0,0.,4.8,1.,4.8,0.,4.8,0.,4.8
1989-08-26T21:08:34.120 ,5,0,0.,4.8,1.,4.8,0.,4.8,0.,4.8
1989-08-26T21:08:38.920 ,5,0,0.,4.8,1.,4.8,0.,4.8,0.,4.8
1989-08-26T21:08:43.720 ,5,0,0.,4.8,0.,4.8,0.,4.8,0.,4.8
1989-08-26T21:08:48.520 ,4,0,0.,4.8,0.,4.8,0.,4.8,0.,4.8
1989-08-26T21:08:53.320 ,4,0,0.,4.8,0.,4.8,1.,4.8,0.,4.8
1989-08-26T21:08:58.120 ,4,0,0.,4.8,0.,4.8,1.,4.8,1.,4.8
1989-08-26T21:09:02.920 ,4,0,0.,4.8,0.,4.8,0.,4.8,0.,4.8
1989-08-26T21:09:07.720 ,4,0,0.,4.8,2.,4.8,0.,4.8,0.,4.8
1989-08-26T21:09:12.520 ,4,0,0.,4.8,1.,4.8,1.,4.8,1.,4.8
1989-08-26T21:09:17.320 ,4,0,0.,4.8,1.,4.8,0.,4.8,0.,4.8
1989-08-26T21:09:22.120 ,4,0,0.,4.8,1.,4.8,1.,4.8,0.,4.8
1989-08-26T21:09:26.920 ,4,0,0.,4.8,1.,4.8,0.,4.8,0.,4.8
1989-08-26T21:09:31.720 ,4,0,0.,4.8,2.,4.8,0.,4.8,0.,4.8
1989-08-26T21:09:36.520 ,3,0,0.,4.8,1.,4.8,0.,4.8,0.,4.8
1989-08-26T21:09:41.320 ,3,0,0.,4.8,2.,4.8,0.,4.8,0.,4.8
1989-08-26T21:09:46.120 ,3,0,0.,4.8,1.,4.8,0.,4.8,0.,4.8
1989-08-26T21:09:50.920 ,3,0,0.,4.8,0.,4.8,0.,4.8,0.,4.8
1989-08-26T21:09:55.720 ,3,0,0.,4.8,0.,4.8,0.,4.8,1.,4.8
1989-08-26T21:10:00.520 ,3,0,0.,4.8,0.,4.8,0.,4.8,0.,4.8
1989-08-26T21:10:05.320 ,3,0,0.,4.8,0.,4.8,2.,4.8,0.,4.8
1989-08-26T21:10:10.120 ,3,0,0.,4.8,2.,4.8,0.,4.8,0.,4.8
1989-08-26T21:10:14.920 ,3,0,0.,4.8,0.,4.8,0.,4.8,0.,4.8
1989-08-26T21:10:19.720 ,3,0,0.,4.8,0.,4.8,0.,4.8,0.,4.8
1989-08-26T21:10:24.520 ,2,0,0.,4.8,0.,4.8,0.,4.8,0.,4.8
1989-08-26T21:10:29.320 ,2,0,0.,4.8,1.,4.8,0.,4.8,0.,4.8
1989-08-26T21:10:34.120 ,2,0,0.,4.8,1.,4.8,0.,4.8,0.,4.8
1989-08-26T21:10:38.920 ,2,0,0.,4.8,0.,4.8,0.,4.8,1.,4.8
1989-08-26T21:10:43.720 ,2,0,0.,4.8,2.,4.8,0.,4.8,0.,4.8
1989-08-26T21:10:48.520 ,2,0,0.,4.8,1.,4.8,0.,4.8,0.,4.8
1989-08-26T21:10:53.320 ,2,0,0.,4.8,1.,4.8,0.,4.8,0.,4.8
1989-08-26T21:10:58.120 ,2,0,0.,4.8,0.,4.8,0.,4.8,0.,4.8
1989-08-26T21:11:02.920 ,2,0,0.,4.8,0.,4.8,0.,4.8,0.,4.8
1989-08-26T21:11:07.720 ,2,0,0.,4.8,0.,4.8,0.,4.8,0.,4.8
1989-08-26T21:11:12.520 ,1,0,0.,4.8,3.,4.8,0.,4.8,0.,4.8
1989-08-26T21:11:17.320 ,1,0,0.,4.8,0.,4.8,0.,4.8,0.,4.8
1989-08-26T21:11:22.120 ,1,0,0.,4.8,0.,4.8,0.,4.8,1.,4.8
1989-08-26T21:11:26.920 ,1,0,0.,4.8,1.,4.8,0.,4.8,0.,4.8
1989-08-26T21:11:31.720 ,1,0,0.,4.8,0.,4.8,0.,4.8,0.,4.8
1989-08-26T21:11:36.520 ,1,0,0.,4.8,0.,4.8,1.,4.8,0.,4.8
1989-08-26T21:11:41.320 ,1,0,0.,4.8,2.,4.8,0.,4.8,0.,4.8
1989-08-26T21:11:46.120 ,1,0,0.,4.8,0.,4.8,0.,4.8,1.,4.8
1989-08-26T21:11:50.920 ,1,0,0.,4.8,0.,4.8,1.,4.8,0.,4.8
1989-08-26T21:11:55.720 ,1,0,0.,4.8,1.,4.8,0.,4.8,0.,4.8
1989-08-26T21:12:00.520 ,0,0,0.,4.8,1.,4.8,0.,4.8,0.,4.8
1989-08-26T21:12:05.320 ,0,0,0.,4.8,0.,4.8,0.,4.8,0.,4.8
1989-08-26T21:12:10.120 ,0,0,0.,4.8,1.,4.8,0.,4.8,0.,4.8
1989-08-26T21:12:14.920 ,0,0,0.,4.8,0.,4.8,0.,4.8,0.,4.8
1989-08-26T21:12:19.720 ,0,0,0.,4.8,0.,4.8,0.,4.8,0.,4.8
1989-08-26T21:12:24.520 ,0,0,0.,4.8,0.,4.8,0.,4.8,0.,4.8
1989-08-26T21:12:29.320 ,0,0,0.,4.8,0.,4.8,1.,4.8,0.,4.8
1989-08-26T21:12:34.120 ,0,0,0.,4.8,2.,4.8,0.,4.8,0.,4.8
1989-08-26T21:12:38.920 ,0,0,0.,4.8,0.,4.8,0.,4.8,0.,4.8
1989-08-26T21:12:43.720 ,0,0,0.,4.8,0.,4.8,0.,4.8,0.,4.8
1989-08-26T21:12:48.520 ,0,0,0.,4.8,1.,4.8,0.,4.8,0.,4.8
1989-08-26T21:12:53.320 ,0,0,0.,4.8,1.,4.8,0.,4.8,0.,4.8
1989-08-26T21:12:58.120 ,0,0,0.,4.8,2.,4.8,0.,4.8,0.,4.8
1989-08-26T21:13:02.920 ,0,0,0.,4.8,0.,4.8,0.,4.8,0.,4.8
1989-08-26T21:13:07.720 ,0,0,0.,4.8,0.,4.8,0.,4.8,0.,4.8
1989-08-26T21:13:12.520 ,0,0,0.,4.8,2.,4.8,0.,4.8,0.,4.8
1989-08-26T21:13:17.320 ,0,0,0.,4.8,0.,4.8,0.,4.8,0.,4.8
1989-08-26T21:13:22.120 ,0,0,0.,4.8,0.,4.8,0.,4.8,0.,4.8
1989-08-26T21:13:26.920 ,0,0,0.,4.8,1.,4.8,1.,4.8,0.,4.8
1989-08-26T21:13:31.720 ,0,0,0.,4.8,0.,4.8,0.,4.8,0.,4.8
1989-08-26T21:13:36.520 ,1,0,0.,4.8,0.,4.8,1.,4.8,0.,4.8
1989-08-26T21:13:41.320 ,1,0,0.,4.8,0.,4.8,1.,4.8,0.,4.8
1989-08-26T21:13:46.120 ,1,0,0.,4.8,0.,4.8,0.,4.8,1.,4.8
1989-08-26T21:13:50.920 ,1,0,0.,4.8,0.,4.8,0.,4.8,0.,4.8
1989-08-26T21:13:55.720 ,1,0,0.,4.8,2.,4.8,0.,4.8,0.,4.8
1989-08-26T21:14:00.520 ,0,0,0.,4.8,1.,4.8,0.,4.8,0.,4.8
1989-08-26T21:14:05.320 ,0,0,0.,4.8,0.,4.8,0.,4.8,0.,4.8
1989-08-26T21:14:10.120 ,0,0,0.,4.8,3.,4.8,0.,4.8,0.,4.8
1989-08-26T21:14:14.920 ,0,0,0.,4.8,0.,4.8,0.,4.8,0.,4.8
1989-08-26T21:14:19.720 ,0,0,,0,,0,,0,,0
1989-08-26T21:14:42.520 ,0,0,,0,,0,,0,,0
1989-08-26T21:14:47.320 ,0,0,,0,,0,,0,,0
1989-08-26T21:14:52.120 ,0,0,,0,,0,,0,,0
1989-08-26T21:14:56.920 ,0,0,,0,,0,,0,,0
1989-08-26T21:15:01.720 ,0,0,0.,4.8,0.,4.8,0.,4.8,0.,4.8
1989-08-26T21:14:48.520 ,0,0,0.,4.8,0.,4.8,0.,4.8,0.,4.8
1989-08-26T21:14:53.320 ,0,0,0.,4.8,1.,4.8,0.,4.8,0.,4.8
1989-08-26T21:14:58.120 ,0,0,0.,4.8,1.,4.8,0.,4.8,0.,4.8
1989-08-26T21:15:02.920 ,0,0,0.,4.8,0.,4.8,0.,4.8,0.,4.8
1989-08-26T21:15:07.720 ,0,0,0.,4.8,1.,4.8,1.,4.8,0.,4.8
1989-08-26T21:15:12.520 ,3,0,0.,4.8,0.,4.8,0.,4.8,0.,4.8
1989-08-26T21:15:17.320 ,3,0,0.,4.8,2.,4.8,1.,4.8,0.,4.8
1989-08-26T21:15:22.120 ,3,0,0.,4.8,0.,4.8,0.,4.8,0.,4.8
1989-08-26T21:15:26.920 ,3,0,0.,4.8,1.,4.8,0.,4.8,0.,4.8
1989-08-26T21:15:31.720 ,3,0,0.,4.8,2.,4.8,0.,4.8,0.,4.8
1989-08-26T21:15:36.520 ,3,0,0.,4.8,0.,4.8,1.,4.8,0.,4.8
1989-08-26T21:15:41.320 ,3,0,0.,4.8,0.,4.8,0.,4.8,0.,4.8
1989-08-26T21:15:46.120 ,3,0,0.,4.8,0.,4.8,0.,4.8,0.,4.8
1989-08-26T21:15:50.920 ,3,0,0.,4.8,0.,4.8,0.,4.8,0.,4.8
1989-08-26T21:15:55.720 ,3,0,0.,4.8,1.,4.8,0.,4.8,1.,4.8
1989-08-26T21:16:00.520 ,4,0,0.,4.8,2.,4.8,0.,4.8,0.,4.8
1989-08-26T21:16:05.320 ,4,0,0.,4.8,1.,4.8,1.,4.8,0.,4.8
1989-08-26T21:16:10.120 ,4,0,0.,4.8,0.,4.8,0.,4.8,0.,4.8
1989-08-26T21:16:14.920 ,4,0,0.,4.8,0.,4.8,0.,4.8,0.,4.8
1989-08-26T21:16:19.720 ,4,0,0.,4.8,2.,4.8,0.,4.8,0.,4.8
1989-08-26T21:16:24.520 ,4,0,0.,4.8,1.,4.8,1.,4.8,0.,4.8
1989-08-26T21:16:29.320 ,4,0,0.,4.8,0.,4.8,0.,4.8,1.,4.8
1989-08-26T21:16:34.120 ,4,0,0.,4.8,0.,4.8,0.,4.8,0.,4.8
1989-08-26T21:16:38.920 ,4,0,0.,4.8,0.,4.8,0.,4.8,0.,4.8
1989-08-26T21:16:43.720 ,4,0,0.,4.8,1.,4.8,0.,4.8,0.,4.8
1989-08-26T21:16:48.520 ,5,0,0.,4.8,0.,4.8,0.,4.8,0.,4.8
1989-08-26T21:16:53.320 ,5,0,0.,4.8,0.,4.8,0.,4.8,0.,4.8
1989-08-26T21:16:58.120 ,5,0,0.,4.8,1.,4.8,1.,4.8,0.,4.8
1989-08-26T21:17:02.920 ,5,0,0.,4.8,0.,4.8,0.,4.8,0.,4.8
1989-08-26T21:17:07.720 ,5,0,0.,4.8,1.,4.8,0.,4.8,0.,4.8
1989-08-26T21:17:12.520 ,5,0,0.,4.8,2.,4.8,0.,4.8,0.,4.8
1989-08-26T21:17:17.320 ,5,0,0.,4.8,1.,4.8,0.,4.8,0.,4.8
1989-08-26T21:17:22.120 ,5,0,0.,4.8,1.,4.8,0.,4.8,0.,4.8
1989-08-26T21:17:26.920 ,5,0,0.,4.8,0.,4.8,1.,4.8,0.,4.8
1989-08-26T21:17:31.720 ,5,0,0.,4.8,1.,4.8,0.,4.8,1.,4.8
1989-08-26T21:17:36.520 ,6,0,0.,4.8,0.,4.8,0.,4.8,0.,4.8
1989-08-26T21:17:41.320 ,6,0,0.,4.8,0.,4.8,0.,4.8,0.,4.8
1989-08-26T21:17:46.120 ,6,0,0.,4.8,0.,4.8,0.,4.8,0.,4.8
1989-08-26T21:17:50.920 ,6,0,0.,4.8,0.,4.8,0.,4.8,0.,4.8
1989-08-26T21:17:55.720 ,6,0,0.,4.8,0.,4.8,1.,4.8,0.,4.8
1989-08-26T21:18:00.520 ,6,0,0.,4.8,0.,4.8,0.,4.8,0.,4.8
1989-08-26T21:18:05.320 ,6,0,0.,4.8,1.,4.8,0.,4.8,0.,4.8
1989-08-26T21:18:10.120 ,6,0,0.,4.8,0.,4.8,0.,4.8,0.,4.8
1989-08-26T21:18:14.920 ,6,0,0.,4.8,0.,4.8,0.,4.8,0.,4.8
1989-08-26T21:18:19.720 ,6,0,0.,4.8,0.,4.8,0.,4.8,0.,4.8
1989-08-26T21:18:24.520 ,7,0,0.,4.8,0.,4.8,0.,4.8,0.,4.8
1989-08-26T21:18:29.320 ,7,0,0.,4.8,0.,4.8,0.,4.8,0.,4.8
1989-08-26T21:18:34.120 ,7,0,0.,4.8,0.,4.8,0.,4.8,0.,4.8
1989-08-26T21:18:38.920 ,7,0,0.,4.8,1.,4.8,0.,4.8,0.,4.8
1989-08-26T21:18:43.720 ,7,0,0.,4.8,0.,4.8,0.,4.8,0.,4.8
1989-08-26T21:18:48.520 ,7,0,0.,4.8,1.,4.8,0.,4.8,0.,4.8
1989-08-26T21:18:53.320 ,7,0,0.,4.8,1.,4.8,0.,4.8,0.,4.8
1989-08-26T21:18:58.120 ,7,0,0.,4.8,0.,4.8,0.,4.8,1.,4.8
1989-08-26T21:19:02.920 ,7,0,0.,4.8,1.,4.8,0.,4.8,0.,4.8
1989-08-26T21:19:07.720 ,7,0,0.,4.8,0.,4.8,0.,4.8,0.,4.8
1989-08-26T21:19:12.520 ,7,0,0.,4.8,0.,4.8,0.,4.8,0.,4.8
1989-08-26T21:19:17.320 ,7,0,0.,4.8,1.,4.8,0.,4.8,0.,4.8
1989-08-26T21:19:22.120 ,7,0,0.,4.8,1.,4.8,0.,4.8,0.,4.8
1989-08-26T21:19:26.920 ,7,0,0.,4.8,0.,4.8,0.,4.8,1.,4.8
1989-08-26T21:19:31.720 ,7,0,0.,4.8,0.,4.8,0.,4.8,0.,4.8
1989-08-26T21:19:36.520 ,7,0,0.,4.8,0.,4.8,0.,4.8,0.,4.8
1989-08-26T21:19:41.320 ,7,0,0.,4.8,1.,4.8,0.,4.8,0.,4.8
1989-08-26T21:19:46.120 ,7,0,0.,4.8,0.,4.8,0.,4.8,0.,4.8
1989-08-26T21:19:50.920 ,7,0,0.,4.8,1.,4.8,0.,4.8,0.,4.8
1989-08-26T21:19:55.720 ,7,0,0.,4.8,1.,4.8,0.,4.8,0.,4.8
1989-08-26T21:20:00.520 ,6,0,0.,4.8,0.,4.8,0.,4.8,0.,4.8
1989-08-26T21:20:05.320 ,6,0,0.,4.8,2.,4.8,0.,4.8,0.,4.8
1989-08-26T21:20:10.120 ,6,0,0.,4.8,0.,4.8,0.,4.8,0.,4.8
1989-08-26T21:20:14.920 ,6,0,0.,4.8,0.,4.8,0.,4.8,0.,4.8
1989-08-26T21:20:19.720 ,6,0,0.,4.8,1.,4.8,0.,4.8,0.,4.8
1989-08-26T21:20:24.520 ,6,0,0.,4.8,1.,4.8,0.,4.8,0.,4.8
1989-08-26T21:20:29.320 ,6,0,0.,4.8,0.,4.8,0.,4.8,0.,4.8
1989-08-26T21:20:34.120 ,6,0,0.,4.8,0.,4.8,0.,4.8,0.,4.8
1989-08-26T21:20:38.920 ,6,0,0.,4.8,0.,4.8,0.,4.8,0.,4.8
1989-08-26T21:20:43.720 ,6,0,0.,4.8,0.,4.8,0.,4.8,0.,4.8
1989-08-26T21:20:48.520 ,5,0,0.,4.8,0.,4.8,0.,4.8,0.,4.8
1989-08-26T21:20:53.320 ,5,0,0.,4.8,0.,4.8,0.,4.8,0.,4.8
1989-08-26T21:20:58.120 ,5,0,0.,4.8,0.,4.8,0.,4.8,1.,4.8
1989-08-26T21:21:02.920 ,5,0,0.,4.8,0.,4.8,0.,4.8,1.,4.8
1989-08-26T21:21:07.720 ,5,0,0.,4.8,1.,4.8,1.,4.8,0.,4.8
1989-08-26T21:21:12.520 ,5,0,0.,4.8,1.,4.8,0.,4.8,0.,4.8
1989-08-26T21:21:17.320 ,5,0,0.,4.8,0.,4.8,0.,4.8,0.,4.8
1989-08-26T21:21:22.120 ,5,0,0.,4.8,1.,4.8,0.,4.8,0.,4.8
1989-08-26T21:21:26.920 ,5,0,0.,4.8,0.,4.8,0.,4.8,0.,4.8
1989-08-26T21:21:31.720 ,5,0,0.,4.8,0.,4.8,1.,4.8,0.,4.8
1989-08-26T21:21:36.520 ,4,0,0.,4.8,0.,4.8,0.,4.8,0.,4.8
1989-08-26T21:21:41.320 ,4,0,0.,4.8,0.,4.8,0.,4.8,0.,4.8
1989-08-26T21:21:46.120 ,4,0,0.,4.8,0.,4.8,0.,4.8,0.,4.8
1989-08-26T21:21:50.920 ,4,0,0.,4.8,0.,4.8,0.,4.8,0.,4.8
1989-08-26T21:21:55.720 ,4,0,0.,4.8,0.,4.8,0.,4.8,0.,4.8
1989-08-26T21:22:00.520 ,4,0,0.,4.8,0.,4.8,0.,4.8,0.,4.8
1989-08-26T21:22:05.320 ,4,0,0.,4.8,1.,4.8,0.,4.8,0.,4.8
1989-08-26T21:22:10.120 ,4,0,0.,4.8,0.,4.8,0.,4.8,0.,4.8
1989-08-26T21:22:14.920 ,4,0,0.,4.8,0.,4.8,0.,4.8,0.,4.8
1989-08-26T21:22:19.720 ,4,0,0.,4.8,0.,4.8,0.,4.8,0.,4.8
1989-08-26T21:22:24.520 ,0,0,,0,,0,,0,,0
1989-08-26T21:22:29.320 ,0,0,,0,,0,,0,,0
1989-08-26T21:22:34.120 ,0,0,,0,,0,,0,,0
1989-08-26T21:22:38.920 ,0,0,,0,,0,,0,,0
1989-08-26T21:22:43.720 ,0,0,,0,,0,,0,,0
1989-08-26T21:22:48.520 ,0,0,,0,,0,,0,,0
1989-08-26T21:22:53.320 ,0,0,,0,,0,,0,,0
1989-08-26T21:22:58.120 ,0,0,,0,,0,,0,,0
1989-08-26T21:23:02.920 ,0,0,,0,,0,,0,,0
1989-08-26T21:23:07.720 ,0,0,,0,,0,,0,,0
1989-08-26T21:23:59.320 ,0,0,,0,,0,,0,,0
1989-08-26T21:24:04.120 ,0,0,,0,,0,,0,,0
1989-08-26T21:24:08.920 ,0,0,,0,,0,,0,,0
1989-08-26T21:24:13.720 ,0,0,,0,,0,,0,,0
1989-08-26T21:24:18.520 ,0,0,,0,,0,,0,,0
1989-08-26T21:24:00.520 ,0,0,0.,4.8,0.,4.8,0.,4.8,0.,4.8
1989-08-26T21:24:05.320 ,0,0,0.,4.8,0.,4.8,0.,4.8,1.,4.8
1989-08-26T21:24:10.120 ,0,0,0.,4.8,0.,4.8,0.,4.8,0.,4.8
1989-08-26T21:24:14.920 ,0,0,0.,4.8,0.,4.8,0.,4.8,0.,4.8
1989-08-26T21:24:19.720 ,0,0,0.,4.8,1.,4.8,0.,4.8,0.,4.8
1989-08-26T21:24:24.520 ,0,0,0.,4.8,0.,4.8,0.,4.8,0.,4.8
1989-08-26T21:24:29.320 ,0,0,0.,4.8,0.,4.8,0.,4.8,0.,4.8
1989-08-26T21:24:34.120 ,0,0,0.,4.8,0.,4.8,0.,4.8,0.,4.8
1989-08-26T21:24:38.920 ,0,0,0.,4.8,0.,4.8,0.,4.8,0.,4.8
1989-08-26T21:24:43.720 ,0,0,0.,4.8,1.,4.8,0.,4.8,0.,4.8
1989-08-26T21:24:48.520 ,0,0,0.,4.8,0.,4.8,0.,4.8,0.,4.8
1989-08-26T21:24:53.320 ,0,0,0.,4.8,0.,4.8,1.,4.8,0.,4.8
1989-08-26T21:24:58.120 ,0,0,0.,4.8,1.,4.8,0.,4.8,0.,4.8
1989-08-26T21:25:02.920 ,0,0,0.,4.8,0.,4.8,0.,4.8,0.,4.8
1989-08-26T21:25:07.720 ,0,0,0.,4.8,1.,4.8,1.,4.8,0.,4.8
1989-08-26T21:25:12.520 ,0,0,0.,4.8,1.,4.8,0.,4.8,0.,4.8
1989-08-26T21:25:17.320 ,0,0,0.,4.8,0.,4.8,0.,4.8,1.,4.8
1989-08-26T21:25:22.120 ,0,0,0.,4.8,1.,4.8,0.,4.8,0.,4.8
1989-08-26T21:25:26.920 ,0,0,0.,4.8,1.,4.8,0.,4.8,0.,4.8
1989-08-26T21:25:31.720 ,0,0,0.,4.8,1.,4.8,0.,4.8,0.,4.8
1989-08-26T21:25:36.520 ,0,0,0.,4.8,2.,4.8,0.,4.8,0.,4.8
1989-08-26T21:25:41.320 ,0,0,0.,4.8,1.,4.8,1.,4.8,0.,4.8
1989-08-26T21:25:46.120 ,0,0,0.,4.8,1.,4.8,0.,4.8,0.,4.8
1989-08-26T21:25:50.920 ,0,0,0.,4.8,0.,4.8,0.,4.8,0.,4.8
1989-08-26T21:25:55.720 ,0,0,0.,4.8,0.,4.8,0.,4.8,0.,4.8
1989-08-26T21:26:00.520 ,0,0,0.,4.8,0.,4.8,0.,4.8,0.,4.8
1989-08-26T21:26:05.320 ,0,0,0.,4.8,2.,4.8,0.,4.8,0.,4.8
1989-08-26T21:26:10.120 ,0,0,0.,4.8,0.,4.8,0.,4.8,0.,4.8
1989-08-26T21:26:14.920 ,0,0,0.,4.8,2.,4.8,0.,4.8,0.,4.8
1989-08-26T21:26:19.720 ,0,0,0.,4.8,1.,4.8,0.,4.8,0.,4.8
1989-08-26T21:26:24.520 ,1,0,0.,4.8,0.,4.8,0.,4.8,0.,4.8
1989-08-26T21:26:29.320 ,1,0,0.,4.8,2.,4.8,0.,4.8,0.,4.8
1989-08-26T21:26:34.120 ,1,0,0.,4.8,0.,4.8,0.,4.8,0.,4.8
1989-08-26T21:26:38.920 ,1,0,0.,4.8,0.,4.8,0.,4.8,0.,4.8
1989-08-26T21:26:43.720 ,1,0,0.,4.8,0.,4.8,0.,4.8,0.,4.8
1989-08-26T21:26:48.520 ,1,0,0.,4.8,0.,4.8,0.,4.8,0.,4.8
1989-08-26T21:26:53.320 ,1,0,0.,4.8,0.,4.8,0.,4.8,0.,4.8
1989-08-26T21:26:58.120 ,1,0,0.,4.8,1.,4.8,0.,4.8,0.,4.8
1989-08-26T21:27:02.920 ,1,0,0.,4.8,2.,4.8,0.,4.8,0.,4.8
1989-08-26T21:27:07.720 ,1,0,0.,4.8,1.,4.8,0.,4.8,0.,4.8
1989-08-26T21:27:12.520 ,2,0,0.,4.8,0.,4.8,0.,4.8,0.,4.8
1989-08-26T21:27:17.320 ,2,0,0.,4.8,0.,4.8,0.,4.8,0.,4.8
1989-08-26T21:27:22.120 ,2,0,0.,4.8,0.,4.8,0.,4.8,0.,4.8
1989-08-26T21:27:26.920 ,2,0,0.,4.8,0.,4.8,1.,4.8,0.,4.8
1989-08-26T21:27:31.720 ,2,0,0.,4.8,0.,4.8,0.,4.8,0.,4.8
1989-08-26T21:27:36.520 ,2,0,0.,4.8,1.,4.8,0.,4.8,0.,4.8
1989-08-26T21:27:41.320 ,2,0,0.,4.8,1.,4.8,0.,4.8,0.,4.8
1989-08-26T21:27:46.120 ,2,0,0.,4.8,1.,4.8,0.,4.8,0.,4.8
1989-08-26T21:27:50.920 ,2,0,0.,4.8,0.,4.8,1.,4.8,0.,4.8
1989-08-26T21:27:55.720 ,2,0,0.,4.8,1.,4.8,0.,4.8,0.,4.8
1989-08-26T21:28:00.520 ,3,0,0.,4.8,0.,4.8,0.,4.8,0.,4.8
1989-08-26T21:28:05.320 ,3,0,0.,4.8,0.,4.8,0.,4.8,0.,4.8
1989-08-26T21:28:10.120 ,3,0,0.,4.8,1.,4.8,0.,4.8,0.,4.8
1989-08-26T21:28:14.920 ,3,0,0.,4.8,0.,4.8,0.,4.8,0.,4.8
1989-08-26T21:28:19.720 ,3,0,0.,4.8,1.,4.8,0.,4.8,1.,4.8
1989-08-26T21:28:24.520 ,3,0,0.,4.8,1.,4.8,0.,4.8,0.,4.8
1989-08-26T21:28:29.320 ,3,0,0.,4.8,0.,4.8,0.,4.8,0.,4.8
1989-08-26T21:28:34.120 ,3,0,0.,4.8,1.,4.8,0.,4.8,0.,4.8
1989-08-26T21:28:38.920 ,3,0,0.,4.8,1.,4.8,0.,4.8,0.,4.8
1989-08-26T21:28:43.720 ,3,0,0.,4.8,0.,4.8,0.,4.8,0.,4.8
1989-08-26T21:28:48.520 ,4,0,0.,4.8,1.,4.8,0.,4.8,0.,4.8
1989-08-26T21:28:53.320 ,4,0,0.,4.8,1.,4.8,0.,4.8,0.,4.8
1989-08-26T21:28:58.120 ,4,0,0.,4.8,2.,4.8,0.,4.8,0.,4.8
1989-08-26T21:29:02.920 ,4,0,0.,4.8,0.,4.8,0.,4.8,0.,4.8
1989-08-26T21:29:07.720 ,4,0,0.,4.8,0.,4.8,0.,4.8,0.,4.8
1989-08-26T21:29:12.520 ,4,0,0.,4.8,1.,4.8,0.,4.8,0.,4.8
1989-08-26T21:29:17.320 ,4,0,0.,4.8,1.,4.8,0.,4.8,0.,4.8
1989-08-26T21:29:22.120 ,4,0,0.,4.8,0.,4.8,0.,4.8,0.,4.8
1989-08-26T21:29:26.920 ,4,0,0.,4.8,0.,4.8,0.,4.8,0.,4.8
1989-08-26T21:29:31.720 ,4,0,0.,4.8,0.,4.8,0.,4.8,0.,4.8
1989-08-26T21:29:36.520 ,5,0,0.,4.8,0.,4.8,1.,4.8,0.,4.8
1989-08-26T21:29:41.320 ,5,0,0.,4.8,1.,4.8,0.,4.8,0.,4.8
1989-08-26T21:29:46.120 ,5,0,0.,4.8,0.,4.8,0.,4.8,0.,4.8
1989-08-26T21:29:50.920 ,5,0,0.,4.8,0.,4.8,0.,4.8,0.,4.8
1989-08-26T21:29:55.720 ,5,0,0.,4.8,1.,4.8,1.,4.8,0.,4.8
1989-08-26T21:30:00.520 ,5,0,0.,4.8,1.,4.8,0.,4.8,0.,4.8
1989-08-26T21:30:05.320 ,5,0,0.,4.8,1.,4.8,1.,4.8,0.,4.8
1989-08-26T21:30:10.120 ,5,0,0.,4.8,1.,4.8,0.,4.8,0.,4.8
1989-08-26T21:30:14.920 ,5,0,0.,4.8,0.,4.8,0.,4.8,0.,4.8
1989-08-26T21:30:19.720 ,5,0,0.,4.8,1.,4.8,0.,4.8,0.,4.8
1989-08-26T21:30:24.520 ,6,0,0.,4.8,0.,4.8,0.,4.8,0.,4.8
1989-08-26T21:30:29.320 ,6,0,0.,4.8,2.,4.8,0.,4.8,0.,4.8
1989-08-26T21:30:34.120 ,6,0,0.,4.8,2.,4.8,0.,4.8,0.,4.8
1989-08-26T21:30:38.920 ,6,0,0.,4.8,0.,4.8,1.,4.8,0.,4.8
1989-08-26T21:30:43.720 ,6,0,0.,4.8,0.,4.8,0.,4.8,0.,4.8
1989-08-26T21:30:48.520 ,6,0,0.,4.8,1.,4.8,0.,4.8,0.,4.8
1989-08-26T21:30:53.320 ,6,0,0.,4.8,1.,4.8,0.,4.8,0.,4.8
1989-08-26T21:30:58.120 ,6,0,0.,4.8,0.,4.8,0.,4.8,0.,4.8
1989-08-26T21:31:02.920 ,6,0,0.,4.8,1.,4.8,0.,4.8,0.,4.8
1989-08-26T21:31:07.720 ,6,0,0.,4.8,0.,4.8,0.,4.8,0.,4.8
1989-08-26T21:31:12.520 ,7,0,0.,4.8,0.,4.8,0.,4.8,0.,4.8
1989-08-26T21:31:17.320 ,7,0,0.,4.8,1.,4.8,0.,4.8,0.,4.8
1989-08-26T21:31:22.120 ,7,0,0.,4.8,0.,4.8,0.,4.8,0.,4.8
1989-08-26T21:31:26.920 ,7,0,0.,4.8,0.,4.8,1.,4.8,0.,4.8
1989-08-26T21:31:31.720 ,7,0,0.,4.8,1.,4.8,0.,4.8,0.,4.8
1989-08-26T21:31:36.520 ,7,0,0.,4.8,0.,4.8,0.,4.8,0.,4.8
1989-08-26T21:31:41.320 ,7,0,0.,4.8,0.,4.8,0.,4.8,0.,4.8
1989-08-26T21:31:46.120 ,7,0,0.,4.8,0.,4.8,0.,4.8,0.,4.8
1989-08-26T21:31:50.920 ,7,0,0.,4.8,1.,4.8,0.,4.8,0.,4.8
1989-08-26T21:31:55.720 ,7,0,0.,4.8,1.,4.8,0.,4.8,0.,4.8
1989-08-26T21:32:00.520 ,7,0,0.,4.8,0.,4.8,0.,4.8,0.,4.8
1989-08-26T21:32:05.320 ,7,0,0.,4.8,1.,4.8,0.,4.8,0.,4.8
1989-08-26T21:32:10.120 ,7,0,0.,4.8,0.,4.8,0.,4.8,0.,4.8
1989-08-26T21:32:14.920 ,7,0,0.,4.8,1.,4.8,0.,4.8,0.,4.8
1989-08-26T21:32:19.720 ,7,0,0.,4.8,1.,4.8,0.,4.8,0.,4.8
1989-08-26T21:32:24.520 ,7,0,0.,4.8,0.,4.8,0.,4.8,0.,4.8
1989-08-26T21:32:29.320 ,7,0,0.,4.8,1.,4.8,0.,4.8,0.,4.8
1989-08-26T21:32:34.120 ,7,0,0.,4.8,2.,4.8,0.,4.8,0.,4.8
1989-08-26T21:32:38.920 ,7,0,0.,4.8,1.,4.8,0.,4.8,0.,4.8
1989-08-26T21:32:43.720 ,7,0,0.,4.8,1.,4.8,0.,4.8,0.,4.8
1989-08-26T21:32:48.520 ,6,0,0.,4.8,1.,4.8,0.,4.8,0.,4.8
1989-08-26T21:32:53.320 ,6,0,0.,4.8,0.,4.8,0.,4.8,0.,4.8
1989-08-26T21:32:58.120 ,6,0,0.,4.8,0.,4.8,0.,4.8,0.,4.8
1989-08-26T21:33:02.920 ,6,0,0.,4.8,2.,4.8,0.,4.8,0.,4.8
1989-08-26T21:33:07.720 ,6,0,0.,4.8,1.,4.8,0.,4.8,0.,4.8
1989-08-26T21:33:12.520 ,6,0,0.,4.8,0.,4.8,0.,4.8,0.,4.8
1989-08-26T21:33:17.320 ,6,0,0.,4.8,1.,4.8,0.,4.8,0.,4.8
1989-08-26T21:33:22.120 ,6,0,0.,4.8,0.,4.8,0.,4.8,0.,4.8
1989-08-26T21:33:26.920 ,6,0,0.,4.8,0.,4.8,0.,4.8,0.,4.8
1989-08-26T21:33:31.720 ,6,0,0.,4.8,1.,4.8,0.,4.8,0.,4.8
1989-08-26T21:33:36.520 ,5,0,0.,4.8,1.,4.8,0.,4.8,0.,4.8
1989-08-26T21:33:41.320 ,5,0,0.,4.8,1.,4.8,1.,4.8,1.,4.8
1989-08-26T21:33:46.120 ,5,0,0.,4.8,0.,4.8,0.,4.8,0.,4.8
1989-08-26T21:33:50.920 ,5,0,0.,4.8,1.,4.8,0.,4.8,0.,4.8
1989-08-26T21:33:55.720 ,5,0,0.,4.8,0.,4.8,0.,4.8,1.,4.8
1989-08-26T21:34:00.520 ,5,0,0.,4.8,0.,4.8,0.,4.8,1.,4.8
1989-08-26T21:34:05.320 ,5,0,0.,4.8,0.,4.8,0.,4.8,0.,4.8
1989-08-26T21:34:10.120 ,5,0,0.,4.8,0.,4.8,0.,4.8,0.,4.8